Погода в Керчи

Погода в Керчи : погода сейчас, прогноз погоды и архив. Всё, что Вы хотите узнать о погоде в Керчи!

Поиск расширенной информации на нашем сайте:

Другие новости

Новости СМИ2

Главная страница сайта

Новости сайта

03.07.2017

Напоминаем, что на нашем специализированном сайте Метеоцентр.Азия вы можете получить высокодетализированные автоматические прогнозы погоды по пунктам России, СНГ и мира в авиационном формате (включающие направление и скорость ветра, видимость, явления погоды, количество и форму облачности, нижнюю и верхнюю границу облачности).

Рекомендуем: купоны gearbest 2018

Погода в Керчи - сегодня

Время (UTC), дата Ветер
(°,м/с) 
Видим.   Явления Облачность Т
(°С)
Тd
(°С)
f(%) Тe
(°С)
Pmin
(гПа)
dP
(гПа)
Po
(мм)
O2
(г/м3)
Тmin Tmax R s Состояние
почвы
00 18.08.17 060 (СВ) 10 км    ясно 
+25.5 +16.8 59 +37  1009.6  0.3  753  274           
03 18.08.17 070 (В) 10 км    8/3 600 м средняя 
[Cu hum|Ac trans]
+25.7 +16.5 57 +37  1009.9  0.3  753  274  +25.3         
06 18.08.17 080 (В) 7-12  10 км    8/3 1000 м средняя, верхняя 
[Cu hum|Ac trans|Ci fib]
+27.2 +17.6 56 +41  1011.3  1.4  754  272  +25.3         
09 18.08.17 090 (В) 8-13{14}  10 км    8/3 1000 м верхняя 
[Cu hum|Ci fib]
+29.2 +19.9 57 +47  1012.4  1.1  755  270           
12 18.08.17 060 (СВ) 7-12{13}  10 км    6/6 600 м кучево-дожд. 
[Cb cap]
+32.1 +20.1 49 +51  1012.5  0.2  755  268           
15 18.08.17 090 (В) 7-12{13}  10 км    10/4 600 м кучево-дожд., средняя 
[Cb cap|Ac trans]
+30.3 +17.6 47 +44  1012.6  0.1  755  270           
18 18.08.17 080 (В) 2{12}  10 км    10/5 600 м кучево-дожд., средняя 
[Cb cap|Ac trans]
+28.1 +19.1 58 +44  1013.2  0.5  756  272    +32.6       
21 18.08.17 050 (СВ) 10 км    6/0 средняя 
[Ac trans]
+23.8 +16.4 63 +35  1013.5  0.2  756  277           
00 19.08.17 050 (СВ) 10 км    3/0 средняя 
[Ac trans]
+23.1 +16.6 67 +34  1013.2  -0.3  756  277           
03 19.08.17 060 (СВ) 10 км    9/3 600 м кучево-дожд., средняя 
[Cb cap|Ac trans]
+24.1 +15.3 58 +33  1013.6  0.4  756  277  +22.9         
06 19.08.17 060 (СВ) 6{10}  10 км    4/1 600 м кучево-дожд., средняя 
[Cb calv|Ac trans]
+26.9 +12.3 40 +31  1014.3  0.8  757  275  +22.9         
09 19.08.17 070 (В) 8-13{14}  10 км    4/0 верхняя 
[Ci fib]
+28.1 +13.5 41 +34  1014.3  757  274           
12 19.08.17 090 (В) 7-12{14}  10 км    3/0 средняя 
[Ac trans]
+29.6 +13.6 38 +36  1014.1  -0.2  756  272           
15 19.08.17 050 (СВ) 6-10{12}  10 км    3/0 верхняя 
[Ci fib]
+30.5 +17.5 46 +44  1013.8  -0.3  756  270           
18 19.08.17 040 (СВ) 2{10}  10 км    3/0 верхняя 
[Ci fib]
+26.3 +18.9 64 +42  1013.9  0.1  756  274    +32.1       
21 19.08.17 тихо ()   10 км    ясно 
+23.8 +19.6 77 +41  1014  756  276           
00 20.08.17 040 (СВ) 10 км    3/0 средняя 
[Ac trans]
+24 +19.1 74 +40  1013.5  -0.5  756  275           
03 20.08.17 050 (СВ) 10 км    3/0 средняя 
[Ac trans]
+23.4 +19.4 78 +40  1013.5  756  276  +22.9         
06 20.08.17 070 (В) 10 км    3/0 средняя 
[Ac trans]
+27.2 +16.6 52 +39  1013.2  -0.2  756  273  +22.9         
09 20.08.17 060 (СВ) 10 км    ясно 
+30.5 +15.5 40 +40  1013  -0.2  756  271           
12 20.08.17 050 (СВ) 7-10{10}  10 км    ясно 
+31.1 +13 33 +36  1012  -0.9  755  271           
15 20.08.17 040 (СВ) 5{10}  10 км    ясно 
+30 +15.8 42 +40  1011.1  -0.9  754  271           
18 20.08.17 090 (В) 10 км    3/0 средняя 
[Ac trans]
+26.8 +17.2 56 +39  1011.5  0.3  754  273    +31.6       
21 20.08.17 360 (С) 10 км    ясно 
+22.5 +17.2 72 +35  1011  -0.6  754  277           
00 21.08.17 тихо ()   10 км    ясно 
+21.1 +17 77 +33  1010.5  -0.5  754  278           
Время (UTC), дата Ветер
(°,м/с) 
Видим.   Явления Облачность Т
(°С)
Тd
(°С)
f(%) Тe
(°С)
Pmin
(гПа)
dP
(гПа)
Po
(мм)
O2
(г/м3)
Тmin Tmax R s Состояние
почвы

Для получения пояснительной информации подведите курсор к названию столбца.

ПОГОДА в Керчи - архив

Всё, что Вы хотите узнать о погоде в Керчи - удобно и подробно!

Выберите нужную дату (начиная с 1 января 2015* года) и нажмите кнопку "Найти".
Будут отображены архивные сводки погоды по пункту Керчь, начиная с указанной даты.


Отображать данные в формате CSV (для использования в таблицах Excel)


Внимание! Наш архив погоды предназначен исключительно для личного некоммерческого использования в познавательных целях. Если Вам необходимы официальные справки о состоянии погоды (для производственных, юридических, коммерческих и т.п. целей), обращайтесь в органы Росгидромета.

*Примечание: данная дата относится к архиву по метеостанциям СССР (Россия, СНГ, Балтия).
Архив по метеостанциям Зарубежной Европы и Азии (кроме Китая) хранится 10 дней, по другим регионам земного шара (Китай, Африка, Америка, Австралия, Океания) - 1 день.

Керчь - район местоположения метеостанции


Название, широта, долгота, высота метеостанции:
Керчь 45.4°ш. 36.4°д. 49 м над ур. моря [Российская Федерация]

Дополнительная информация

В oтличие oт бoльшинства пoгoдных сайтoв мы публикуем пoдрoбную метеoинфoрмацию в детальнoм прoфессиoнальнoм фoрмате.

Характеристики температуры и влажнoсти вoздуха измеряются на высoте 2 м в тени вдали oт зданий и деревьев.
Скoрoсть ветра измеряется на высoте 10 м (на урoвне рoста челoвека скoрoсть ветра ниже в 1.5-2 раза). Если метеoстанция нахoдится в гoрoде или в лесу, тo скoрoсть ветра занижена на 2-4 м/с пo сравнению с oткрытым местoм. Скoрoсть ветра над акватoриями крупных рек и oзёр, а также на вершинах хoлмoв на 2-5 м/с выше, чем в oбычных услoвиях.
Атмoсфернoе давление в разных тoчках местнoсти мoжет значительнo oтличаться oт давления на метеoстанции, в зависимoсти oт услoвий рельефа (при пoдъёме на 10 м давление пoнижается примернo на 1 мм рт.ст.).